When you browse on this site, cookies collect data to enhance your experience and personalize the content and advertising you see.
Visit our Privacy Policy to learn more. By continuing to use the site, you agree to this use of cookies and data.
  • In Latvia
  • List of Countries
  • For 7 days
  • Water Temperature
  • Weather Map
  • Weather Widgets
  • user-avatar
    Login

    Hourly Weather Galevka

    Today, 26 August, Monday

    Time Temperature Precipitation Wind Pressure Humidity
    00:00 +12°C° 0 mm 3 mps 754 mmHg 89%
    01:00 +13°C° 0 mm 2 mps 754 mmHg 90%
    02:00 +12°C° 0 mm 2 mps 755 mmHg 90%
    03:00 +12°C° 0 mm 1 mps 755 mmHg 90%
    04:00 +12°C° 0 mm 1 mps 755 mmHg 91%
    05:00 +11°C° 0 mm 1 mps 755 mmHg 91%
    06:00 +11°C° 0 mm 1 mps 755 mmHg 92%
    07:00 +13°C° 0 mm 1 mps 755 mmHg 85%
    08:00 +14°C° 0 mm 1 mps 756 mmHg 79%
    09:00 +16°C° 0 mm 1 mps 756 mmHg 73%
    10:00 +18°C° 0 mm 1 mps 756 mmHg 68%
    11:00 +18°C° 0 mm 0 mps 755 mmHg 63%
    12:00 +19°C° 0 mm 0 mps 755 mmHg 58%
    13:00 +21°C° 0 mm 1 mps 755 mmHg 56%
    14:00 +22°C° 0 mm 1 mps 755 mmHg 54%
    15:00 +21°C° 0 mm 2 mps 754 mmHg 51%
    16:00 +21°C° 0 mm 2 mps 754 mmHg 55%
    17:00 +21°C° 0 mm 2 mps 753 mmHg 59%
    18:00 +20°C° 0 mm 2 mps 753 mmHg 63%
    19:00 +19°C° 0 mm 2 mps 753 mmHg 67%
    20:00 +18°C° 0 mm 2 mps 752 mmHg 71%
    21:00 +16°C° 0 mm 2 mps 752 mmHg 75%
    22:00 +16°C° 0 mm 2 mps 752 mmHg 76%
    23:00 +16°C° 0 mm 2 mps 751 mmHg 78%

    Tomorrow, 27 August, Tuesday

    Time Temperature Precipitation Wind Pressure Humidity
    00:00 +16°C° 0 mm 3 mps 751 mmHg 79%
    01:00 +14°C° 0 mm 3 mps 751 mmHg 79%
    02:00 +14°C° 0 mm 3 mps 750 mmHg 79%
    03:00 +14°C° 0 mm 4 mps 750 mmHg 79%
    04:00 +14°C° 0 mm 4 mps 749 mmHg 80%
    05:00 +15°C° 0 mm 4 mps 749 mmHg 80%
    06:00 +15°C° 0 mm 5 mps 748 mmHg 81%
    07:00 +16°C° 0 mm 5 mps 748 mmHg 80%
    08:00 +17°C° 0 mm 5 mps 748 mmHg 79%
    09:00 +19°C° 0 mm 5 mps 748 mmHg 78%
    10:00 +19°C° 0.5 mm 5 mps 748 mmHg 75%
    11:00 +20°C° 0.5 mm 5 mps 747 mmHg 72%
    12:00 +21°C° 0.5 mm 5 mps 747 mmHg 69%
    13:00 +21°C° 0.1 mm 6 mps 747 mmHg 66%
    14:00 +22°C° 0.1 mm 6 mps 747 mmHg 64%
    15:00 +22°C° 0.1 mm 6 mps 747 mmHg 61%
    16:00 +22°C° 0 mm 5 mps 747 mmHg 63%
    17:00 +21°C° 0 mm 4 mps 747 mmHg 65%
    18:00 +20°C° 0 mm 3 mps 747 mmHg 67%
    19:00 +19°C° 0 mm 4 mps 748 mmHg 70%
    20:00 +18°C° 0 mm 4 mps 748 mmHg 73%
    21:00 +15°C° 0 mm 4 mps 748 mmHg 76%
    22:00 +14°C° 0 mm 4 mps 749 mmHg 79%
    23:00 +13°C° 0 mm 3 mps 749 mmHg 82%

    Day after tomorrow, 28 August, Wednesday

    Time Temperature Precipitation Wind Pressure Humidity
    00:00 +12°C° 0 mm 3 mps 749 mmHg 86%
    01:00 +12°C° 0 mm 3 mps 749 mmHg 86%
    02:00 +11°C° 0 mm 3 mps 750 mmHg 86%
    03:00 +10°C° 0 mm 3 mps 750 mmHg 86%
    04:00 +10°C° 0 mm 4 mps 750 mmHg 87%
    05:00 +10°C° 0 mm 4 mps 750 mmHg 88%
    06:00 +8°C° 0 mm 4 mps 750 mmHg 89%
    07:00 +9°C° 0 mm 5 mps 751 mmHg 81%
    08:00 +10°C° 0 mm 5 mps 751 mmHg 73%
    09:00 +12°C° 0 mm 5 mps 751 mmHg 66%
    10:00 +13°C° 0 mm 6 mps 751 mmHg 62%
    11:00 +14°C° 0 mm 6 mps 751 mmHg 58%
    12:00 +15°C° 0 mm 6 mps 751 mmHg 55%
    13:00 +15°C° 0 mm 6 mps 751 mmHg 53%
    14:00 +15°C° 0 mm 6 mps 751 mmHg 51%
    15:00 +15°C° 0 mm 6 mps 751 mmHg 49%
    16:00 +15°C° 0 mm 6 mps 752 mmHg 52%
    17:00 +14°C° 0 mm 5 mps 752 mmHg 55%
    18:00 +14°C° 0 mm 4 mps 752 mmHg 59%
    19:00 +12°C° 0 mm 4 mps 752 mmHg 63%
    20:00 +11°C° 0 mm 3 mps 753 mmHg 67%
    21:00 +10°C° 0 mm 3 mps 753 mmHg 72%
    22:00 +9°C° 0 mm 3 mps 753 mmHg 74%
    23:00 +9°C° 0 mm 3 mps 753 mmHg 77%

    29 August, Thursday

    Time Temperature Precipitation Wind Pressure Humidity
    00:00 +8°C° 0 mm 2 mps 753 mmHg 79%
    01:00 +8°C° 0 mm 2 mps 754 mmHg 81%
    02:00 +7°C° 0 mm 2 mps 754 mmHg 83%
    03:00 +7°C° 0 mm 2 mps 754 mmHg 85%
    04:00 +7°C° 0 mm 2 mps 754 mmHg 86%
    05:00 +7°C° 0 mm 2 mps 754 mmHg 88%
    06:00 +7°C° 0 mm 2 mps 754 mmHg 89%
    07:00 +8°C° 0 mm 2 mps 754 mmHg 82%
    08:00 +10°C° 0 mm 3 mps 754 mmHg 74%
    09:00 +12°C° 0 mm 3 mps 754 mmHg 67%
    10:00 +13°C° 0 mm 3 mps 754 mmHg 61%
    11:00 +14°C° 0 mm 3 mps 754 mmHg 55%
    12:00 +16°C° 0 mm 3 mps 754 mmHg 49%
    13:00 +17°C° 0 mm 3 mps 754 mmHg 50%
    14:00 +17°C° 0 mm 3 mps 753 mmHg 51%
    15:00 +18°C° 0 mm 3 mps 753 mmHg 52%
    16:00 +18°C° 0 mm 3 mps 753 mmHg 57%
    17:00 +18°C° 0 mm 2 mps 752 mmHg 62%
    18:00 +17°C° 0 mm 2 mps 752 mmHg 67%
    19:00 +16°C° 0 mm 2 mps 752 mmHg 71%
    20:00 +15°C° 0 mm 2 mps 752 mmHg 76%
    21:00 +14°C° 0 mm 2 mps 752 mmHg 80%
    22:00 +13°C° 0 mm 2 mps 752 mmHg 81%
    23:00 +13°C° 0 mm 2 mps 751 mmHg 83%

    30 August, Friday

    Time Temperature Precipitation Wind Pressure Humidity
    00:00 +12°C° 0 mm 3 mps 751 mmHg 84%
    01:00 +12°C° 0 mm 3 mps 751 mmHg 85%
    02:00 +11°C° 0 mm 3 mps 751 mmHg 86%
    03:00 +11°C° 0 mm 3 mps 750 mmHg 86%
    04:00 +11°C° 0 mm 3 mps 750 mmHg 87%
    05:00 +11°C° 0 mm 4 mps 750 mmHg 88%
    06:00 +11°C° 0 mm 4 mps 750 mmHg 88%
    07:00 +13°C° 0 mm 4 mps 750 mmHg 82%
    08:00 +14°C° 0 mm 5 mps 750 mmHg 76%
    09:00 +16°C° 0 mm 6 mps 750 mmHg 70%
    10:00 +17°C° 0 mm 6 mps 750 mmHg 67%
    11:00 +20°C° 0 mm 6 mps 750 mmHg 63%
    12:00 +21°C° 0 mm 6 mps 750 mmHg 60%
    13:00 +21°C° 0.1 mm 5 mps 750 mmHg 62%
    14:00 +21°C° 0.1 mm 5 mps 750 mmHg 64%
    15:00 +21°C° 0.1 mm 5 mps 750 mmHg 66%
    16:00 +20°C° 0.2 mm 4 mps 750 mmHg 70%
    17:00 +19°C° 0.2 mm 4 mps 750 mmHg 74%
    18:00 +18°C° 0.2 mm 3 mps 750 mmHg 78%
    19:00 +16°C° 0 mm 3 mps 750 mmHg 81%
    20:00 +15°C° 0 mm 2 mps 750 mmHg 83%
    21:00 +14°C° 0 mm 2 mps 750 mmHg 86%
    22:00 +13°C° 0 mm 2 mps 750 mmHg 84%
    23:00 +12°C° 0 mm 2 mps 751 mmHg 82%

    31 August, Saturday

    Time Temperature Precipitation Wind Pressure Humidity
    00:00 +12°C° 0 mm 2 mps 751 mmHg 79%
    01:00 +10°C° 0 mm 2 mps 751 mmHg 80%
    02:00 +10°C° 0 mm 2 mps 751 mmHg 80%
    03:00 +10°C° 0 mm 2 mps 751 mmHg 81%
    04:00 +10°C° 0 mm 2 mps 751 mmHg 82%
    05:00 +10°C° 0 mm 2 mps 750 mmHg 83%
    06:00 +10°C° 0 mm 2 mps 750 mmHg 85%
    07:00 +13°C° 0 mm 2 mps 750 mmHg 82%
    08:00 +14°C° 0 mm 2 mps 750 mmHg 80%
    09:00 +16°C° 0 mm 2 mps 750 mmHg 78%
    10:00 +18°C° 0 mm 2 mps 750 mmHg 73%
    11:00 +19°C° 0 mm 2 mps 750 mmHg 68%
    12:00 +21°C° 0 mm 2 mps 750 mmHg 63%
    13:00 +21°C° 0 mm 2 mps 749 mmHg 60%
    14:00 +22°C° 0 mm 3 mps 749 mmHg 56%
    15:00 +24°C° 0 mm 3 mps 749 mmHg 53%
    16:00 +22°C° 0 mm 3 mps 749 mmHg 57%
    17:00 +22°C° 0 mm 3 mps 748 mmHg 62%
    18:00 +21°C° 0 mm 2 mps 748 mmHg 66%
    19:00 +19°C° 0 mm 2 mps 748 mmHg 70%
    20:00 +18°C° 0 mm 2 mps 748 mmHg 74%
    21:00 +17°C° 0 mm 2 mps 748 mmHg 78%
    22:00 +16°C° 0 mm 2 mps 748 mmHg 78%
    23:00 +15°C° 0 mm 2 mps 748 mmHg 78%
    Show more